Time,TemperatureF,DewpointF,PressureIn,WindDirection,WindDirectionDegrees,WindSpeedMPH,WindSpeedGustMPH,Humidity,HourlyPrecipIn,Conditions,Clouds,dailyrainin,SoftwareType,DateUTC
2013-01-15 00:03:00,31.6,22.3,30.23,North,7,4.9,4.9,68,0.00,CLR,,0.00,WeatherDisplay:10.37,2013-01-15 06:03:00,
2013-01-15 00:08:00,31.6,22.3,30.23,North,353,3.5,3.5,68,0.00,CLR,,0.00,WeatherDisplay:10.37,2013-01-15 06:08:00,
2013-01-15 00:13:00,31.6,22.3,30.23,North,8,4.6,4.6,68,0.00,CLR,,0.00,WeatherDisplay:10.37,2013-01-15 06:13:00,
2013-01-15 00:18:00,31.6,22.3,30.23,NNW,346,5.4,5.4,68,0.00,CLR,,0.00,WeatherDisplay:10.37,2013-01-15 06:18:00,
2013-01-15 00:23:00,31.6,22.3,30.20,North,353,5.8,5.8,68,0.00,CLR,,0.00,WeatherDisplay:10.37,2013-01-15 06:23:00,
2013-01-15 00:28:00,31.5,22.1,30.20,NNW,339,3.6,3.6,68,0.00,CLR,,0.00,WeatherDisplay:10.37,2013-01-15 06:28:00,
2013-01-15 00:33:00,31.3,21.9,30.20,North,0,4.6,4.6,68,0.00,CLR,,0.00,WeatherDisplay:10.37,2013-01-15 06:33:00,
2013-01-15 00:38:00,31.3,22.3,30.23,North,0,4.9,4.9,69,0.00,CLR,,0.00,WeatherDisplay:10.37,2013-01-15 06:38:00,
2013-01-15 00:43:00,31.1,22.1,30.23,North,353,3.5,3.5,69,0.00,CLR,,0.00,WeatherDisplay:10.37,2013-01-15 06:43:00,
2013-01-15 00:48:00,31.1,22.1,30.23,North,349,3.5,3.5,69,0.00,CLR,,0.00,WeatherDisplay:10.37,2013-01-15 06:48:00,
2013-01-15 00:53:00,31.1,22.1,30.20,North,353,3.5,3.5,69,0.00,CLR,,0.00,WeatherDisplay:10.37,2013-01-15 06:53:00,
2013-01-15 00:58:00,31.1,22.1,30.20,North,2,3.5,3.5,69,0.00,CLR,,0.00,WeatherDisplay:10.37,2013-01-15 06:58:00,
2013-01-15 01:03:00,31.3,22.6,30.20,NNW,343,4.6,4.6,70,0.00,SCT,,0.00,WeatherDisplay:10.37,2013-01-15 07:03:00,
2013-01-15 01:08:00,31.6,22.6,30.20,NNW,335,5.8,5.8,69,0.00,SCT,,0.00,WeatherDisplay:10.37,2013-01-15 07:08:00,
2013-01-15 01:13:00,31.5,22.5,30.20,NNW,346,5.8,5.8,69,0.00,SCT,,0.00,WeatherDisplay:10.37,2013-01-15 07:13:00,
2013-01-15 01:18:00,31.3,21.9,30.20,North,5,5.8,5.8,68,0.00,SCT,,0.00,WeatherDisplay:10.37,2013-01-15 07:18:00,
2013-01-15 01:24:00,31.1,22.1,30.17,North,353,4.6,4.6,69,0.00,SCT,,0.00,WeatherDisplay:10.37,2013-01-15 07:24:00,
2013-01-15 01:29:00,31.1,22.1,30.17,NNW,348,3.5,4.0,69,0.00,SCT,,0.00,WeatherDisplay:10.37,2013-01-15 07:29:00,
2013-01-15 01:34:00,31.3,22.6,30.17,North,349,5.8,5.8,70,0.00,SCT,,0.00,WeatherDisplay:10.37,2013-01-15 07:34:00,
2013-01-15 01:39:00,31.5,22.8,30.17,North,11,5.8,5.8,70,0.00,SCT,,0.00,WeatherDisplay:10.37,2013-01-15 07:39:00,
2013-01-15 01:44:00,31.6,23.0,30.17,NNW,333,5.8,5.8,70,0.00,SCT,,0.00,WeatherDisplay:10.37,2013-01-15 07:44:00,
2013-01-15 01:49:00,31.8,23.1,30.17,NNW,345,3.5,4.0,70,0.00,SCT,,0.00,WeatherDisplay:10.37,2013-01-15 07:49:00,
2013-01-15 01:54:00,32.0,23.0,30.17,North,353,3.5,3.5,69,0.00,SCT,,0.00,WeatherDisplay:10.37,2013-01-15 07:54:00,
2013-01-15 01:59:00,32.2,23.1,30.17,NNW,337,5.8,5.8,69,0.00,SCT,,0.00,WeatherDisplay:10.37,2013-01-15 07:59:00,
2013-01-15 02:04:00,32.4,23.3,30.17,NNW,340,3.6,3.6,69,0.00,SCT,,0.00,WeatherDisplay:10.37,2013-01-15 08:04:00,
2013-01-15 02:09:00,32.5,23.1,30.20,North,353,3.5,3.5,68,0.00,SCT,,0.00,WeatherDisplay:10.37,2013-01-15 08:09:00,
2013-01-15 02:14:00,32.5,22.8,30.20,North,353,3.5,3.6,67,0.00,SCT,,0.00,WeatherDisplay:10.37,2013-01-15 08:14:00,
2013-01-15 02:19:00,32.7,22.6,30.20,North,0,8.1,8.1,66,0.00,SCT,,0.00,WeatherDisplay:10.37,2013-01-15 08:19:00,
2013-01-15 02:24:00,32.7,21.9,30.20,NNW,337,5.8,5.8,64,0.00,SCT,,0.00,WeatherDisplay:10.37,2013-01-15 08:24:00,
2013-01-15 02:29:00,32.7,21.5,30.20,North,357,6.9,6.9,63,0.00,SCT,,0.00,WeatherDisplay:10.37,2013-01-15 08:29:00,
2013-01-15 02:34:00,32.9,21.3,30.20,NNW,344,4.6,4.6,62,0.00,OVC,,0.00,WeatherDisplay:10.37,2013-01-15 08:34:00,
2013-01-15 02:39:00,32.9,20.9,30.20,NNE,24,5.8,5.8,61,0.00,OVC,,0.00,WeatherDisplay:10.37,2013-01-15 08:39:00,
2013-01-15 02:44:00,32.9,20.5,30.20,North,353,8.1,8.1,60,0.00,OVC,,0.00,WeatherDisplay:10.37,2013-01-15 08:44:00,
2013-01-15 02:49:00,33.1,20.3,30.20,North,357,5.8,5.8,59,0.00,OVC,,0.00,WeatherDisplay:10.37,2013-01-15 08:49:00,
2013-01-15 02:54:00,33.1,19.9,30.20,North,353,6.9,6.9,58,0.00,OVC,,0.00,WeatherDisplay:10.37,2013-01-15 08:54:00,
2013-01-15 02:59:00,33.1,19.9,30.20,North,357,5.8,5.8,58,0.00,OVC,,0.00,WeatherDisplay:10.37,2013-01-15 08:59:00,
2013-01-15 03:04:00,33.1,19.5,30.20,North,353,5.8,5.8,57,0.00,OVC,,0.00,WeatherDisplay:10.37,2013-01-15 09:04:00,
2013-01-15 03:09:00,33.1,19.5,30.20,NNW,328,5.8,5.8,57,0.00,OVC,,0.00,WeatherDisplay:10.37,2013-01-15 09:09:00,
2013-01-15 03:14:00,33.1,19.5,30.20,NNW,342,5.8,5.8,57,0.00,OVC,,0.00,WeatherDisplay:10.37,2013-01-15 09:14:00,
2013-01-15 03:19:00,33.1,19.5,30.20,NNW,343,4.6,4.6,57,0.00,OVC,,0.00,WeatherDisplay:10.37,2013-01-15 09:19:00,
2013-01-15 03:24:00,33.1,19.5,30.20,NNW,332,4.6,4.6,57,0.00,OVC,,0.00,WeatherDisplay:10.37,2013-01-15 09:24:00,
2013-01-15 03:29:00,33.1,19.5,30.20,NE,35,5.8,5.8,57,0.00,OVC,,0.00,WeatherDisplay:10.37,2013-01-15 09:29:00,
2013-01-15 03:34:00,33.1,19.5,30.20,NNW,345,9.2,9.2,57,0.00,OVC,,0.00,WeatherDisplay:10.37,2013-01-15 09:34:00,
2013-01-15 03:39:00,32.9,19.3,30.20,North,0,5.8,5.8,57,0.00,OVC,,0.00,WeatherDisplay:10.37,2013-01-15 09:39:00,
2013-01-15 03:44:00,33.1,19.5,30.20,NNW,339,5.8,5.8,57,0.00,OVC,,0.00,WeatherDisplay:10.37,2013-01-15 09:44:00,
2013-01-15 03:49:00,33.1,19.5,30.20,North,353,6.3,6.3,57,0.00,OVC,,0.00,WeatherDisplay:10.37,2013-01-15 09:49:00,
2013-01-15 03:54:00,33.1,19.5,30.20,NNW,331,8.1,8.1,57,0.00,OVC,,0.00,WeatherDisplay:10.37,2013-01-15 09:54:00,
2013-01-15 03:59:00,33.1,19.5,30.20,North,353,8.1,8.1,57,0.00,OVC,,0.00,WeatherDisplay:10.37,2013-01-15 09:59:00,
2013-01-15 04:04:00,33.1,19.5,30.20,North,353,9.2,9.2,57,0.00,OVC,,0.00,WeatherDisplay:10.37,2013-01-15 10:04:00,
2013-01-15 04:09:00,33.1,19.1,30.17,NNW,328,7.6,7.6,56,0.00,OVC,,0.00,WeatherDisplay:10.37,2013-01-15 10:09:00,
2013-01-15 04:14:00,33.1,19.5,30.17,North,357,8.1,8.1,57,0.00,OVC,,0.00,WeatherDisplay:10.37,2013-01-15 10:14:00,
2013-01-15 04:19:00,33.1,19.9,30.17,NNE,19,8.1,8.1,58,0.00,OVC,,0.00,WeatherDisplay:10.37,2013-01-15 10:19:00,
2013-01-15 04:24:00,33.1,19.9,30.17,NNW,342,3.5,0.0,58,0.00,OVC,,0.00,WeatherDisplay:10.37,2013-01-15 10:24:00,
2013-01-15 04:29:00,33.1,20.3,30.17,North,0,5.8,5.8,59,0.00,OVC,,0.00,WeatherDisplay:10.37,2013-01-15 10:29:00,
2013-01-15 04:34:00,33.1,20.7,30.17,NNW,342,3.5,3.5,60,0.00,OVC,,0.00,WeatherDisplay:10.37,2013-01-15 10:34:00,
2013-01-15 04:39:00,32.9,20.9,30.20,NNW,344,5.4,5.4,61,0.00,OVC,,0.00,WeatherDisplay:10.37,2013-01-15 10:39:00,
2013-01-15 04:44:00,32.9,20.9,30.20,North,357,5.8,5.8,61,0.00,OVC,,0.00,WeatherDisplay:10.37,2013-01-15 10:44:00,
2013-01-15 04:49:00,32.9,20.9,30.20,North,0,5.8,5.8,61,0.00,OVC,,0.00,WeatherDisplay:10.37,2013-01-15 10:49:00,
2013-01-15 04:54:00,33.1,21.1,30.20,North,353,5.8,5.8,61,0.00,OVC,,0.00,WeatherDisplay:10.37,2013-01-15 10:54:00,
2013-01-15 04:59:00,33.1,21.1,30.20,NNW,346,8.1,8.1,61,0.00,OVC,,0.00,WeatherDisplay:10.37,2013-01-15 10:59:00,
2013-01-15 05:04:00,33.1,21.1,30.20,NNW,340,5.8,5.8,61,0.00,OVC,,0.00,WeatherDisplay:10.37,2013-01-15 11:04:00,
2013-01-15 05:09:00,33.1,21.1,30.17,NNW,348,5.8,5.8,61,0.00,OVC,,0.00,WeatherDisplay:10.37,2013-01-15 11:09:00,
2013-01-15 05:14:00,33.1,21.1,30.17,NNW,342,3.5,3.5,61,0.00,OVC,,0.00,WeatherDisplay:10.37,2013-01-15 11:14:00,
2013-01-15 05:19:00,33.1,21.1,30.17,North,0,4.6,4.6,61,0.00,OVC,,0.00,WeatherDisplay:10.37,2013-01-15 11:19:00,
2013-01-15 05:24:00,33.1,21.1,30.20,North,8,2.3,0.0,61,0.00,OVC,,0.00,WeatherDisplay:10.37,2013-01-15 11:24:00,
2013-01-15 05:29:00,33.1,21.1,30.20,North,353,3.5,3.5,61,0.00,OVC,,0.00,WeatherDisplay:10.37,2013-01-15 11:29:00,
2013-01-15 05:34:00,33.1,21.1,30.17,NNW,339,5.8,5.8,61,0.00,OVC,,0.00,WeatherDisplay:10.37,2013-01-15 11:34:00,
2013-01-15 05:39:00,33.1,21.1,30.17,North,0,5.8,5.8,61,0.00,OVC,,0.00,WeatherDisplay:10.37,2013-01-15 11:39:00,
2013-01-15 05:44:00,33.1,21.1,30.17,NNW,342,3.5,3.5,61,0.00,OVC,,0.00,WeatherDisplay:10.37,2013-01-15 11:44:00,
2013-01-15 05:49:00,33.1,21.1,30.17,NNW,336,3.5,3.6,61,0.00,OVC,,0.00,WeatherDisplay:10.37,2013-01-15 11:49:00,
2013-01-15 05:54:00,32.9,20.9,30.17,North,357,5.8,5.8,61,0.00,OVC,,0.00,WeatherDisplay:10.37,2013-01-15 11:54:00,
2013-01-15 05:59:00,32.7,20.7,30.17,North,350,5.8,5.8,61,0.00,OVC,,0.00,WeatherDisplay:10.37,2013-01-15 11:59:00,
2013-01-15 06:04:00,32.7,21.1,30.17,North,357,5.8,5.8,62,0.00,-SN,,0.00,WeatherDisplay:10.37,2013-01-15 12:04:00,
2013-01-15 06:09:00,32.7,21.5,30.20,North,0,5.8,5.8,63,0.00,-SN,,0.00,WeatherDisplay:10.37,2013-01-15 12:09:00,
2013-01-15 06:14:00,32.5,21.7,30.20,North,0,3.5,3.5,64,0.00,-SN,,0.00,WeatherDisplay:10.37,2013-01-15 12:14:00,
2013-01-15 06:19:00,32.4,21.9,30.20,North,0,5.8,5.8,65,0.00,-SN,,0.00,WeatherDisplay:10.37,2013-01-15 12:19:00,
2013-01-15 06:24:00,32.2,22.4,30.20,North,0,3.5,0.0,67,0.00,-SN,,0.00,WeatherDisplay:10.37,2013-01-15 12:24:00,
2013-01-15 06:29:00,32.2,22.4,30.20,North,357,2.3,0.0,67,0.00,-SN,,0.00,WeatherDisplay:10.37,2013-01-15 12:29:00,
2013-01-15 06:34:00,31.8,22.8,30.20,North,7,4.0,4.0,69,0.00,-SN,,0.00,WeatherDisplay:10.37,2013-01-15 12:34:00,
2013-01-15 06:39:00,31.5,22.8,30.20,NNE,27,5.8,5.8,70,0.00,-SN,,0.00,WeatherDisplay:10.37,2013-01-15 12:39:00,
2013-01-15 06:44:00,31.1,23.1,30.20,North,11,3.5,0.0,72,0.00,-SN,,0.00,WeatherDisplay:10.37,2013-01-15 12:44:00,
2013-01-15 06:49:00,30.7,23.4,30.20,North,2,5.8,5.8,74,0.00,-SN,,0.00,WeatherDisplay:10.37,2013-01-15 12:49:00,
2013-01-15 06:54:00,30.4,23.4,30.23,NNE,17,5.8,5.8,75,0.00,-SN,,0.00,WeatherDisplay:10.37,2013-01-15 12:54:00,
2013-01-15 06:59:00,30.2,23.9,30.23,North,11,5.8,5.8,77,0.00,-SN,,0.00,WeatherDisplay:10.37,2013-01-15 12:59:00,
2013-01-15 07:04:00,30.0,24.0,30.23,North,353,6.9,6.9,78,0.00,-SN,,0.00,WeatherDisplay:10.37,2013-01-15 13:04:00,
2013-01-15 07:09:00,29.8,24.4,30.23,North,3,6.9,6.9,80,0.00,-SN,,0.00,WeatherDisplay:10.37,2013-01-15 13:09:00,
2013-01-15 07:15:00,29.7,24.5,30.23,NNW,345,4.6,4.6,81,0.00,-SN,,0.00,WeatherDisplay:10.37,2013-01-15 13:15:00,
2013-01-15 07:20:00,29.5,24.7,30.23,North,0,5.8,5.8,82,0.00,OVC,,0.00,WeatherDisplay:10.37,2013-01-15 13:20:00,
2013-01-15 07:25:00,29.5,25.2,30.23,NNE,21,5.8,5.8,84,0.00,OVC,,0.00,WeatherDisplay:10.37,2013-01-15 13:25:00,
2013-01-15 07:30:00,29.3,25.4,30.23,North,353,5.8,5.8,85,0.00,OVC,,0.00,WeatherDisplay:10.37,2013-01-15 13:30:00,
2013-01-15 07:35:00,29.3,25.6,30.23,NNW,342,8.1,8.1,86,0.00,OVC,,0.00,WeatherDisplay:10.37,2013-01-15 13:35:00,
2013-01-15 07:40:00,29.3,25.9,30.23,North,357,5.8,5.8,87,0.00,OVC,,0.00,WeatherDisplay:10.37,2013-01-15 13:40:00,
2013-01-15 07:45:00,29.3,25.9,30.23,North,6,6.9,6.9,87,0.00,OVC,,0.00,WeatherDisplay:10.37,2013-01-15 13:45:00,
2013-01-15 07:50:00,29.3,26.2,30.23,NE,50,8.1,8.1,88,0.00,OVC,,0.00,WeatherDisplay:10.37,2013-01-15 13:50:00,
2013-01-15 07:55:00,29.3,26.2,30.23,NE,41,6.9,6.9,88,0.00,OVC,,0.00,WeatherDisplay:10.37,2013-01-15 13:55:00,
2013-01-15 08:00:00,29.5,26.4,30.23,North,359,5.0,8.0,88,0.00,OVC,,0.00,WeatherDisplay:10.37,2013-01-15 14:00:00,
2013-01-15 08:05:00,29.4,26.3,30.22,North,353,5.0,6.0,88,0.00,-SN,,0.00,WeatherDisplay:10.37,2013-01-15 14:05:00,
2013-01-15 08:10:00,29.5,26.4,30.20,NNW,339,5.8,5.8,88,0.00,-SN,,0.00,WeatherDisplay:10.37,2013-01-15 14:10:00,
2013-01-15 08:15:00,29.5,26.4,30.20,North,0,8.1,8.1,88,0.00,-SN,,0.00,WeatherDisplay:10.37,2013-01-15 14:15:00,
2013-01-15 08:20:00,29.5,26.4,30.20,North,356,5.0,8.0,88,0.00,-SN,,0.00,WeatherDisplay:10.37,2013-01-15 14:20:00,
2013-01-15 08:25:00,29.7,26.5,30.20,North,3,6.9,6.9,88,0.00,-SN,,0.00,WeatherDisplay:10.37,2013-01-15 14:25:00,
2013-01-15 08:30:00,29.7,26.5,30.20,North,358,6.0,8.0,88,0.00,-SN,,0.00,WeatherDisplay:10.37,2013-01-15 14:30:00,
2013-01-15 08:35:00,29.8,26.7,30.20,NNW,341,5.8,5.8,88,0.00,-SN,,0.00,WeatherDisplay:10.37,2013-01-15 14:35:00,
2013-01-15 08:40:00,29.8,26.4,30.20,North,0,5.8,5.8,87,0.00,-SN,,0.00,WeatherDisplay:10.37,2013-01-15 14:40:00,
2013-01-15 08:45:00,29.8,26.4,30.20,North,353,5.8,5.8,87,0.00,-SN,,0.00,WeatherDisplay:10.37,2013-01-15 14:45:00,
2013-01-15 08:50:00,30.0,26.6,30.20,North,350,7.0,9.0,87,0.00,-SN,,0.00,WeatherDisplay:10.37,2013-01-15 14:50:00,
2013-01-15 08:55:00,30.2,26.8,30.20,North,3,8.1,8.1,87,0.00,-SN,,0.00,WeatherDisplay:10.37,2013-01-15 14:55:00,
2013-01-15 09:00:00,30.2,26.8,30.20,North,353,6.0,11.0,87,0.00,-SN,,0.00,WeatherDisplay:10.37,2013-01-15 15:00:00,
2013-01-15 09:05:00,30.2,26.8,30.20,North,350,9.2,9.2,87,0.00,OVC,,0.00,WeatherDisplay:10.37,2013-01-15 15:05:00,
2013-01-15 09:10:00,30.4,27.0,30.20,NNW,338,5.8,5.8,87,0.00,OVC,,0.00,WeatherDisplay:10.37,2013-01-15 15:10:00,
2013-01-15 09:15:00,30.6,27.2,30.20,North,0,6.0,8.0,87,0.00,OVC,,0.00,WeatherDisplay:10.37,2013-01-15 15:15:00,
2013-01-15 09:20:00,30.9,27.5,30.20,NNW,345,6.9,6.9,87,0.00,OVC,,0.00,WeatherDisplay:10.37,2013-01-15 15:20:00,
2013-01-15 09:25:00,31.3,27.6,30.20,North,5,5.0,9.0,86,0.00,OVC,,0.00,WeatherDisplay:10.37,2013-01-15 15:25:00,
2013-01-15 09:30:00,31.6,27.9,30.20,North,353,8.1,8.1,86,0.00,OVC,,0.00,WeatherDisplay:10.37,2013-01-15 15:30:00,
2013-01-15 09:35:00,32.2,28.2,30.20,North,353,5.8,5.8,85,0.00,OVC,,0.00,WeatherDisplay:10.37,2013-01-15 15:35:00,
2013-01-15 09:40:00,32.3,28.3,30.20,North,0,5.0,8.0,85,0.00,OVC,,0.00,WeatherDisplay:10.37,2013-01-15 15:40:00,
2013-01-15 09:45:00,32.4,28.1,30.20,North,356,5.0,8.0,84,0.00,OVC,,0.00,WeatherDisplay:10.37,2013-01-15 15:45:00,
2013-01-15 09:50:00,32.4,27.8,30.20,NNW,343,10.4,10.4,83,0.00,OVC,,0.00,WeatherDisplay:10.37,2013-01-15 15:50:00,
2013-01-15 09:55:00,32.5,28.0,30.20,NNE,17,5.8,5.8,83,0.00,OVC,,0.00,WeatherDisplay:10.37,2013-01-15 15:55:00,
2013-01-15 10:00:00,32.7,28.1,30.20,North,5,5.0,9.0,83,0.00,OVC,,0.00,WeatherDisplay:10.37,2013-01-15 16:00:00,
2013-01-15 10:05:00,32.9,28.3,30.20,NNW,341,7.6,7.6,83,0.00,OVC,,0.00,WeatherDisplay:10.37,2013-01-15 16:05:00,
2013-01-15 10:10:00,32.9,28.3,30.20,North,349,7.0,11.0,83,0.00,OVC,,0.00,WeatherDisplay:10.37,2013-01-15 16:10:00,
2013-01-15 10:15:00,33.1,28.2,30.20,North,352,6.0,8.0,82,0.00,OVC,,0.00,WeatherDisplay:10.37,2013-01-15 16:15:00,
2013-01-15 10:20:00,33.6,28.7,30.20,North,353,5.8,5.8,82,0.00,OVC,,0.00,WeatherDisplay:10.37,2013-01-15 16:20:00,
2013-01-15 10:25:00,34.0,28.8,30.20,NNW,346,5.0,8.0,81,0.00,OVC,,0.00,WeatherDisplay:10.37,2013-01-15 16:25:00,
2013-01-15 10:30:00,34.0,28.5,30.20,North,349,6.0,12.0,80,0.00,OVC,,0.00,WeatherDisplay:10.37,2013-01-15 16:30:00,
2013-01-15 10:35:00,34.0,28.5,30.20,NNW,347,6.0,9.0,80,0.00,OVC,,0.00,WeatherDisplay:10.37,2013-01-15 16:35:00,
2013-01-15 10:40:00,34.0,28.2,30.17,North,357,8.1,8.1,79,0.00,OVC,,0.00,WeatherDisplay:10.37,2013-01-15 16:40:00,
2013-01-15 10:45:00,34.2,28.6,30.17,North,0,8.1,8.1,80,0.00,OVC,,0.00,WeatherDisplay:10.37,2013-01-15 16:45:00,
2013-01-15 10:50:00,34.3,28.8,30.17,North,349,6.0,8.0,80,0.00,OVC,,0.00,WeatherDisplay:10.37,2013-01-15 16:50:00,
2013-01-15 10:55:00,34.5,29.0,30.20,North,357,6.3,6.3,80,0.00,OVC,,0.00,WeatherDisplay:10.37,2013-01-15 16:55:00,
2013-01-15 11:00:00,34.5,29.3,30.20,North,350,3.0,6.0,81,0.00,OVC,,0.00,WeatherDisplay:10.37,2013-01-15 17:00:00,
2013-01-15 11:05:00,34.9,29.3,30.19,North,351,3.0,6.0,80,0.00,OVC,,0.00,WeatherDisplay:10.37,2013-01-15 17:05:00,
2013-01-15 11:10:00,35.1,29.5,30.17,North,353,6.9,6.9,80,0.00,OVC,,0.00,WeatherDisplay:10.37,2013-01-15 17:10:00,
2013-01-15 11:15:00,35.4,29.9,30.17,NNW,342,6.3,6.3,80,0.00,OVC,,0.00,WeatherDisplay:10.37,2013-01-15 17:15:00,
2013-01-15 11:20:00,35.1,29.2,30.17,North,349,5.0,9.0,79,0.00,OVC,,0.00,WeatherDisplay:10.37,2013-01-15 17:20:00,
2013-01-15 11:25:00,35.1,29.2,30.17,NNW,335,5.8,5.8,79,0.00,OVC,,0.00,WeatherDisplay:10.37,2013-01-15 17:25:00,
2013-01-15 11:30:00,35.2,29.7,30.17,NNW,346,6.0,9.0,80,0.00,OVC,,0.00,WeatherDisplay:10.37,2013-01-15 17:30:00,
2013-01-15 11:35:00,35.1,29.5,30.17,NNW,346,6.0,8.0,80,0.00,OVC,,0.00,WeatherDisplay:10.37,2013-01-15 17:35:00,
2013-01-15 11:40:00,34.7,29.8,30.17,NNW,327,8.7,8.7,82,0.00,OVC,,0.00,WeatherDisplay:10.37,2013-01-15 17:40:00,
2013-01-15 11:45:00,34.5,29.9,30.17,NNW,345,3.0,9.0,83,0.00,OVC,,0.00,WeatherDisplay:10.37,2013-01-15 17:45:00,
2013-01-15 11:50:00,34.3,30.0,30.17,NNW,346,5.0,8.0,84,0.00,OVC,,0.00,WeatherDisplay:10.37,2013-01-15 17:50:00,
2013-01-15 11:55:00,34.3,30.3,30.17,North,0,5.8,5.8,85,0.00,OVC,,0.00,WeatherDisplay:10.37,2013-01-15 17:55:00,
2013-01-15 12:00:00,34.5,30.8,30.17,NNW,344,5.0,8.0,86,0.00,OVC,,0.00,WeatherDisplay:10.37,2013-01-15 18:00:00,
2013-01-15 12:05:00,34.3,30.6,30.17,North,4,5.8,5.8,86,0.00,OVC,,0.00,WeatherDisplay:10.37,2013-01-15 18:05:00,
2013-01-15 12:10:00,34.3,30.9,30.17,NNW,339,3.5,3.5,87,0.00,OVC,,0.00,WeatherDisplay:10.37,2013-01-15 18:10:00,
2013-01-15 12:15:00,34.2,30.7,30.17,North,1,5.8,5.8,87,0.00,OVC,,0.00,WeatherDisplay:10.37,2013-01-15 18:15:00,
2013-01-15 12:20:00,34.2,30.7,30.17,NNW,346,4.6,4.6,87,0.00,OVC,,0.00,WeatherDisplay:10.37,2013-01-15 18:20:00,
2013-01-15 12:25:00,34.2,30.7,30.17,North,349,5.8,5.8,87,0.00,OVC,,0.00,WeatherDisplay:10.37,2013-01-15 18:25:00,
2013-01-15 12:30:00,34.3,31.2,30.17,NNW,345,5.8,5.8,88,0.00,OVC,,0.00,WeatherDisplay:10.37,2013-01-15 18:30:00,
2013-01-15 12:35:00,34.2,30.7,30.17,North,353,7.6,7.6,87,0.00,OVC,,0.00,WeatherDisplay:10.37,2013-01-15 18:35:00,
2013-01-15 12:40:00,34.0,30.5,30.17,NNW,335,5.8,5.8,87,0.00,OVC,,0.00,WeatherDisplay:10.37,2013-01-15 18:40:00,
2013-01-15 12:45:00,33.8,30.1,30.17,North,357,5.8,5.8,86,0.00,OVC,,0.00,WeatherDisplay:10.37,2013-01-15 18:45:00,
2013-01-15 12:50:00,34.0,30.5,30.15,North,0,4.6,4.6,87,0.00,OVC,,0.00,WeatherDisplay:10.37,2013-01-15 18:50:00,
2013-01-15 12:55:00,33.8,30.3,30.15,NNW,341,5.8,5.8,87,0.00,OVC,,0.00,WeatherDisplay:10.37,2013-01-15 18:55:00,
2013-01-15 13:00:00,33.8,30.3,30.15,North,357,5.8,5.8,87,0.00,OVC,,0.00,WeatherDisplay:10.37,2013-01-15 19:00:00,
2013-01-15 13:05:00,34.0,30.8,30.15,North,357,6.9,6.9,88,0.00,OVC,,0.00,WeatherDisplay:10.37,2013-01-15 19:05:00,
2013-01-15 13:10:00,33.8,30.6,30.15,North,357,4.6,4.6,88,0.00,OVC,,0.00,WeatherDisplay:10.37,2013-01-15 19:10:00,
2013-01-15 13:15:00,33.8,30.6,30.15,NNW,341,3.5,3.5,88,0.00,OVC,,0.00,WeatherDisplay:10.37,2013-01-15 19:15:00,
2013-01-15 13:20:00,33.8,30.9,30.15,NNW,346,5.8,5.8,89,0.00,OVC,,0.00,WeatherDisplay:10.37,2013-01-15 19:20:00,
2013-01-15 13:25:00,33.6,30.7,30.15,North,3,8.1,8.1,89,0.00,OVC,,0.00,WeatherDisplay:10.37,2013-01-15 19:25:00,
2013-01-15 13:30:00,33.6,31.0,30.15,NNW,345,4.6,4.6,90,0.00,OVC,,0.00,WeatherDisplay:10.37,2013-01-15 19:30:00,
2013-01-15 13:35:00,33.8,31.2,30.15,NNE,28,4.0,4.0,90,0.00,OVC,,0.00,WeatherDisplay:10.37,2013-01-15 19:35:00,
2013-01-15 13:40:00,33.6,31.0,30.15,NNW,344,5.8,5.8,90,0.00,OVC,,0.00,WeatherDisplay:10.37,2013-01-15 19:40:00,
2013-01-15 13:45:00,33.6,31.0,30.15,North,357,5.8,5.8,90,0.00,OVC,,0.00,WeatherDisplay:10.37,2013-01-15 19:45:00,
2013-01-15 13:50:00,33.6,31.3,30.15,North,7,3.5,3.5,91,0.00,OVC,,0.00,WeatherDisplay:10.37,2013-01-15 19:50:00,
2013-01-15 13:55:00,33.6,31.3,30.15,North,3,5.8,5.8,91,0.00,OVC,,0.00,WeatherDisplay:10.37,2013-01-15 19:55:00,
2013-01-15 14:00:00,33.6,31.5,30.15,North,1,3.5,3.5,92,0.00,OVC,,0.00,WeatherDisplay:10.37,2013-01-15 20:00:00,
2013-01-15 14:05:00,33.8,31.7,30.17,North,6,5.8,5.8,92,0.00,OVC,,0.00,WeatherDisplay:10.37,2013-01-15 20:05:00,
2013-01-15 14:10:00,33.8,31.7,30.17,North,0,3.5,3.5,92,0.00,OVC,,0.00,WeatherDisplay:10.37,2013-01-15 20:10:00,
2013-01-15 14:15:00,33.8,31.7,30.17,North,8,5.8,5.8,92,0.00,OVC,,0.00,WeatherDisplay:10.37,2013-01-15 20:15:00,
2013-01-15 14:20:00,33.8,31.7,30.17,North,357,4.0,4.0,92,0.00,OVC,,0.00,WeatherDisplay:10.37,2013-01-15 20:20:00,
2013-01-15 14:25:00,33.8,32.0,30.17,NNW,346,5.8,5.8,93,0.00,OVC,,0.00,WeatherDisplay:10.37,2013-01-15 20:25:00,
2013-01-15 14:30:00,34.2,32.3,30.17,North,6,5.8,5.8,93,0.00,OVC,,0.00,WeatherDisplay:10.37,2013-01-15 20:30:00,
2013-01-15 14:35:00,34.3,32.5,30.17,North,353,5.8,5.8,93,0.00,OVC,,0.00,WeatherDisplay:10.37,2013-01-15 20:35:00,
2013-01-15 14:40:00,34.3,32.5,30.17,North,353,5.8,5.8,93,0.00,OVC,,0.00,WeatherDisplay:10.37,2013-01-15 20:40:00,
2013-01-15 14:45:00,34.3,32.5,30.17,NNW,346,5.8,5.8,93,0.00,OVC,,0.00,WeatherDisplay:10.37,2013-01-15 20:45:00,
2013-01-15 14:50:00,34.3,32.5,30.17,North,353,6.3,6.3,93,0.00,OVC,,0.00,WeatherDisplay:10.37,2013-01-15 20:50:00,
2013-01-15 14:55:00,34.3,32.5,30.17,North,2,5.8,5.8,93,0.00,OVC,,0.00,WeatherDisplay:10.37,2013-01-15 20:55:00,
2013-01-15 15:00:00,34.3,32.8,30.17,NNW,345,4.0,4.0,94,0.00,OVC,,0.00,WeatherDisplay:10.37,2013-01-15 21:00:00,
2013-01-15 15:05:00,34.3,32.5,30.17,North,0,6.9,6.9,93,0.00,OVC,,0.00,WeatherDisplay:10.37,2013-01-15 21:05:00,
2013-01-15 15:10:00,34.3,32.5,30.17,North,5,5.8,5.8,93,0.00,OVC,,0.00,WeatherDisplay:10.37,2013-01-15 21:10:00,
2013-01-15 15:15:00,34.5,32.7,30.17,North,353,3.5,3.6,93,0.00,OVC,,0.00,WeatherDisplay:10.37,2013-01-15 21:15:00,
2013-01-15 15:20:00,34.5,32.7,30.17,North,0,5.8,5.8,93,0.00,OVC,,0.00,WeatherDisplay:10.37,2013-01-15 21:20:00,
2013-01-15 15:25:00,34.7,32.9,30.17,North,0,5.8,5.8,93,0.00,OVC,,0.00,WeatherDisplay:10.37,2013-01-15 21:25:00,
2013-01-15 15:30:00,34.9,33.1,30.17,North,11,5.8,5.8,93,0.00,OVC,,0.00,WeatherDisplay:10.37,2013-01-15 21:30:00,
2013-01-15 15:35:00,35.1,33.0,30.17,North,357,3.5,3.5,92,0.00,OVC,,0.00,WeatherDisplay:10.37,2013-01-15 21:35:00,
2013-01-15 15:40:00,35.2,32.9,30.17,NNE,15,5.8,5.8,91,0.00,OVC,,0.00,WeatherDisplay:10.37,2013-01-15 21:40:00,
2013-01-15 15:45:00,35.4,32.8,30.17,NNE,14,6.3,6.3,90,0.00,OVC,,0.00,WeatherDisplay:10.37,2013-01-15 21:45:00,
2013-01-15 15:50:00,35.4,32.5,30.17,NNE,28,8.1,8.1,89,0.00,OVC,,0.00,WeatherDisplay:10.37,2013-01-15 21:50:00,
2013-01-15 15:55:00,35.6,32.1,30.17,NNW,344,5.8,5.8,87,0.01,RA,,0.01,WeatherDisplay:10.37,2013-01-15 21:55:00,
2013-01-15 16:00:00,35.6,31.8,30.17,NNE,15,5.8,5.8,86,0.01,RA,,0.01,WeatherDisplay:10.37,2013-01-15 22:00:00,
2013-01-15 16:05:00,35.8,32.0,30.17,North,2,5.8,5.8,86,0.01,OVC,,0.01,WeatherDisplay:10.37,2013-01-15 22:05:00,
2013-01-15 16:10:00,35.8,31.7,30.17,North,0,5.8,5.8,85,0.01,OVC,,0.01,WeatherDisplay:10.37,2013-01-15 22:10:00,
2013-01-15 16:15:00,35.8,31.7,30.17,North,350,4.6,4.6,85,0.01,OVC,,0.01,WeatherDisplay:10.37,2013-01-15 22:15:00,
2013-01-15 16:20:00,36.0,31.9,30.17,North,3,3.5,3.5,85,0.01,OVC,,0.01,WeatherDisplay:10.37,2013-01-15 22:20:00,
2013-01-15 16:25:00,36.1,32.1,30.17,NNW,346,3.5,3.5,85,0.01,OVC,,0.01,WeatherDisplay:10.37,2013-01-15 22:25:00,
2013-01-15 16:30:00,36.1,31.8,30.17,North,353,5.8,5.8,84,0.01,OVC,,0.01,WeatherDisplay:10.37,2013-01-15 22:30:00,
2013-01-15 16:35:00,36.1,31.8,30.17,NNE,18,2.3,0.0,84,0.01,OVC,,0.01,WeatherDisplay:10.37,2013-01-15 22:35:00,
2013-01-15 16:40:00,36.0,31.6,30.17,NNE,24,0.0,0.0,84,0.02,RA,,0.02,WeatherDisplay:10.37,2013-01-15 22:40:00,
2013-01-15 16:46:00,36.0,31.6,30.17,NNE,24,0.0,0.0,84,0.02,RA,,0.02,WeatherDisplay:10.37,2013-01-15 22:46:00,
2013-01-15 16:51:00,35.8,31.4,30.20,NNE,24,0.0,0.0,84,0.02,OVC,,0.02,WeatherDisplay:10.37,2013-01-15 22:51:00,
2013-01-15 16:56:00,35.8,31.1,30.20,NNE,27,0.0,0.0,83,0.01,OVC,,0.02,WeatherDisplay:10.37,2013-01-15 22:56:00,
2013-01-15 17:01:00,35.8,30.8,30.20,NNE,31,2.3,0.0,82,0.01,OVC,,0.02,WeatherDisplay:10.37,2013-01-15 23:01:00,
2013-01-15 17:06:00,35.8,30.8,30.20,NE,38,3.5,0.0,82,0.01,OVC,,0.02,WeatherDisplay:10.37,2013-01-15 23:06:00,
2013-01-15 17:11:00,35.8,30.5,30.20,NE,34,0.0,0.0,81,0.01,OVC,,0.02,WeatherDisplay:10.37,2013-01-15 23:11:00,
2013-01-15 17:16:00,35.8,30.5,30.20,NNE,21,0.0,0.0,81,0.01,OVC,,0.02,WeatherDisplay:10.37,2013-01-15 23:16:00,
2013-01-15 17:21:00,35.8,30.5,30.17,NNE,24,3.5,3.5,81,0.01,OVC,,0.02,WeatherDisplay:10.37,2013-01-15 23:21:00,
2013-01-15 17:26:00,36.0,30.4,30.17,North,8,3.5,3.5,80,0.01,OVC,,0.02,WeatherDisplay:10.37,2013-01-15 23:26:00,
2013-01-15 17:31:00,36.0,30.1,30.17,NNE,25,3.5,0.0,79,0.01,OVC,,0.02,WeatherDisplay:10.37,2013-01-15 23:31:00,
2013-01-15 17:36:00,35.8,29.9,30.17,North,11,2.3,0.0,79,0.01,OVC,,0.02,WeatherDisplay:10.37,2013-01-15 23:36:00,
2013-01-15 17:41:00,35.8,29.6,30.17,NNE,23,2.3,0.0,78,0.00,OVC,,0.02,WeatherDisplay:10.37,2013-01-15 23:41:00,
2013-01-15 17:46:00,35.8,29.6,30.17,NNE,15,3.5,0.0,78,0.01,RA,,0.03,WeatherDisplay:10.37,2013-01-15 23:46:00,
2013-01-15 17:51:00,35.8,29.6,30.20,NNE,21,3.5,0.0,78,0.01,RA,,0.03,WeatherDisplay:10.37,2013-01-15 23:51:00,
2013-01-15 17:56:00,35.8,29.3,30.20,NNE,24,3.5,3.5,77,0.01,OVC,,0.03,WeatherDisplay:10.37,2013-01-15 23:56:00,
2013-01-15 18:01:00,35.8,29.3,30.20,NNE,27,2.3,0.0,77,0.01,OVC,,0.03,WeatherDisplay:10.37,2013-01-16 00:01:00,
2013-01-15 18:06:00,35.6,28.8,30.20,NNE,17,2.3,0.0,76,0.01,OVC,,0.03,WeatherDisplay:10.37,2013-01-16 00:06:00,
2013-01-15 18:11:00,35.8,29.0,30.20,NNE,19,3.5,0.0,76,0.01,OVC,,0.03,WeatherDisplay:10.37,2013-01-16 00:11:00,
2013-01-15 18:16:00,35.8,29.0,30.20,North,9,2.2,0.0,76,0.01,OVC,,0.03,WeatherDisplay:10.37,2013-01-16 00:16:00,
2013-01-15 18:21:00,35.8,29.0,30.20,NNE,16,2.3,0.0,76,0.01,OVC,,0.03,WeatherDisplay:10.37,2013-01-16 00:21:00,
2013-01-15 18:26:00,35.8,29.0,30.20,NNE,18,0.0,0.0,76,0.01,OVC,,0.03,WeatherDisplay:10.37,2013-01-16 00:26:00,
2013-01-15 18:31:00,35.8,29.0,30.20,NNE,27,2.3,0.0,76,0.01,OVC,,0.03,WeatherDisplay:10.37,2013-01-16 00:31:00,
2013-01-15 18:36:00,35.8,28.6,30.20,NNE,27,2.3,0.0,75,0.01,OVC,,0.03,WeatherDisplay:10.37,2013-01-16 00:36:00,
2013-01-15 18:41:00,35.8,28.6,30.20,NNE,19,0.0,0.0,75,0.01,OVC,,0.03,WeatherDisplay:10.37,2013-01-16 00:41:00,
2013-01-15 18:46:00,35.6,28.5,30.20,North,11,2.3,0.0,75,0.00,OVC,,0.03,WeatherDisplay:10.37,2013-01-16 00:46:00,
2013-01-15 18:51:00,35.6,28.5,30.23,North,11,0.0,0.0,75,0.00,OVC,,0.03,WeatherDisplay:10.37,2013-01-16 00:51:00,
2013-01-15 18:56:00,35.8,29.0,30.23,North,11,0.0,0.0,76,0.00,OVC,,0.03,WeatherDisplay:10.37,2013-01-16 00:56:00,
2013-01-15 19:01:00,35.8,29.0,30.23,North,11,0.0,0.0,76,0.00,OVC,,0.03,WeatherDisplay:10.37,2013-01-16 01:01:00,
2013-01-15 19:06:00,35.8,29.0,30.20,North,11,0.0,0.0,76,0.00,OVC,,0.03,WeatherDisplay:10.37,2013-01-16 01:06:00,
2013-01-15 19:11:00,35.6,28.8,30.20,NNE,12,0.0,0.0,76,0.00,OVC,,0.03,WeatherDisplay:10.37,2013-01-16 01:11:00,
2013-01-15 19:16:00,35.6,28.8,30.20,NNE,12,0.0,0.0,76,0.00,OVC,,0.03,WeatherDisplay:10.37,2013-01-16 01:16:00,
2013-01-15 19:21:00,35.6,28.8,30.23,NNE,13,2.3,0.0,76,0.00,OVC,,0.03,WeatherDisplay:10.37,2013-01-16 01:21:00,
2013-01-15 19:26:00,35.8,29.0,30.23,NNE,19,2.3,0.0,76,0.00,OVC,,0.03,WeatherDisplay:10.37,2013-01-16 01:26:00,
2013-01-15 19:31:00,35.8,29.3,30.23,NNE,19,2.3,0.0,77,0.00,OVC,,0.03,WeatherDisplay:10.37,2013-01-16 01:31:00,
2013-01-15 19:36:00,35.8,29.3,30.20,NNE,16,2.3,0.0,77,0.00,OVC,,0.03,WeatherDisplay:10.37,2013-01-16 01:36:00,
2013-01-15 19:41:00,35.8,29.3,30.20,NNE,33,3.5,3.5,77,0.00,OVC,,0.03,WeatherDisplay:10.37,2013-01-16 01:41:00,
2013-01-15 19:46:00,35.8,29.3,30.20,NE,43,3.5,0.0,77,0.00,OVC,,0.03,WeatherDisplay:10.37,2013-01-16 01:46:00,
2013-01-15 19:51:00,35.8,29.3,30.20,NNE,31,4.6,0.0,77,0.00,OVC,,0.03,WeatherDisplay:10.37,2013-01-16 01:51:00,
2013-01-15 19:56:00,35.8,29.3,30.20,NNE,16,3.5,0.0,77,0.00,OVC,,0.03,WeatherDisplay:10.37,2013-01-16 01:56:00,
2013-01-15 20:01:00,35.8,29.3,30.20,NNE,14,3.5,0.0,77,0.00,OVC,,0.03,WeatherDisplay:10.37,2013-01-16 02:01:00,
2013-01-15 20:06:00,35.8,29.6,30.20,North,357,3.5,0.0,78,0.00,OVC,,0.03,WeatherDisplay:10.37,2013-01-16 02:06:00,
2013-01-15 20:11:00,35.8,29.6,30.20,NNE,24,2.3,2.7,78,0.00,OVC,,0.03,WeatherDisplay:10.37,2013-01-16 02:11:00,
2013-01-15 20:16:00,35.8,29.6,30.20,NNE,17,2.3,0.0,78,0.00,OVC,,0.03,WeatherDisplay:10.37,2013-01-16 02:16:00,
2013-01-15 20:21:00,35.6,29.4,30.20,North,4,3.5,0.0,78,0.01,RA,,0.04,WeatherDisplay:10.37,2013-01-16 02:21:00,
2013-01-15 20:26:00,35.6,29.4,30.20,NE,39,0.0,0.0,78,0.01,RA,,0.04,WeatherDisplay:10.37,2013-01-16 02:26:00,
2013-01-15 20:31:00,35.6,29.4,30.20,NNE,33,2.3,0.0,78,0.01,OVC,,0.04,WeatherDisplay:10.37,2013-01-16 02:31:00,
2013-01-15 20:36:00,35.6,29.4,30.23,NNE,18,0.0,0.0,78,0.01,OVC,,0.04,WeatherDisplay:10.37,2013-01-16 02:36:00,
2013-01-15 20:41:00,35.6,29.4,30.23,NNE,31,0.0,0.0,78,0.01,OVC,,0.04,WeatherDisplay:10.37,2013-01-16 02:41:00,
2013-01-15 20:46:00,35.6,29.4,30.23,NNE,30,0.0,0.0,78,0.01,OVC,,0.04,WeatherDisplay:10.37,2013-01-16 02:46:00,
2013-01-15 20:51:00,35.6,29.4,30.23,NNE,30,0.0,0.0,78,0.01,OVC,,0.04,WeatherDisplay:10.37,2013-01-16 02:51:00,
2013-01-15 20:56:00,35.6,29.4,30.23,NNE,18,0.0,0.0,78,0.01,OVC,,0.04,WeatherDisplay:10.37,2013-01-16 02:56:00,
2013-01-15 21:01:00,35.4,29.2,30.23,NNE,18,0.0,0.0,78,0.01,OVC,,0.04,WeatherDisplay:10.37,2013-01-16 03:01:00,
2013-01-15 21:06:00,35.4,29.6,30.23,NNE,18,0.0,0.0,79,0.01,OVC,,0.04,WeatherDisplay:10.37,2013-01-16 03:06:00,
2013-01-15 21:11:00,35.2,29.4,30.23,NNE,18,0.0,0.0,79,0.01,OVC,,0.04,WeatherDisplay:10.37,2013-01-16 03:11:00,
2013-01-15 21:16:00,35.4,29.6,30.23,NNE,23,0.0,0.0,79,0.01,OVC,,0.04,WeatherDisplay:10.37,2013-01-16 03:16:00,
2013-01-15 21:21:00,35.4,29.6,30.23,NNE,23,0.0,0.0,79,0.00,OVC,,0.04,WeatherDisplay:10.37,2013-01-16 03:21:00,
2013-01-15 21:26:00,35.4,29.6,30.23,NNE,31,0.0,0.0,79,0.00,OVC,,0.04,WeatherDisplay:10.37,2013-01-16 03:26:00,
2013-01-15 21:31:00,35.1,29.2,30.23,NNE,23,0.0,0.0,79,0.00,OVC,,0.04,WeatherDisplay:10.37,2013-01-16 03:31:00,
2013-01-15 21:36:00,34.9,28.7,30.20,NNE,26,0.0,0.0,78,0.00,OVC,,0.04,WeatherDisplay:10.37,2013-01-16 03:36:00,
2013-01-15 21:41:00,34.5,28.7,30.20,NNE,28,0.0,0.0,79,0.00,OVC,,0.04,WeatherDisplay:10.37,2013-01-16 03:41:00,
2013-01-15 21:46:00,34.3,28.5,30.20,NE,34,0.0,0.0,79,0.00,OVC,,0.04,WeatherDisplay:10.37,2013-01-16 03:46:00,
2013-01-15 21:51:00,34.2,28.3,30.23,NE,41,0.0,0.0,79,0.00,OVC,,0.04,WeatherDisplay:10.37,2013-01-16 03:51:00,
2013-01-15 21:56:00,34.0,27.8,30.23,NNE,20,2.2,0.0,78,0.00,OVC,,0.04,WeatherDisplay:10.37,2013-01-16 03:56:00,
2013-01-15 22:01:00,33.8,27.7,30.23,NNE,20,2.3,0.0,78,0.00,SCT,,0.04,WeatherDisplay:10.37,2013-01-16 04:01:00,
2013-01-15 22:06:00,33.4,27.6,30.20,NNE,17,0.0,0.0,79,0.00,SCT,,0.04,WeatherDisplay:10.37,2013-01-16 04:06:00,
2013-01-15 22:11:00,33.3,27.5,30.20,NNE,25,2.3,0.0,79,0.00,SCT,,0.04,WeatherDisplay:10.37,2013-01-16 04:11:00,
2013-01-15 22:16:00,33.1,27.3,30.20,NNE,19,3.1,0.0,79,0.00,SCT,,0.04,WeatherDisplay:10.37,2013-01-16 04:16:00,
2013-01-15 22:21:00,32.9,27.1,30.20,NNE,17,0.0,0.0,79,0.00,SCT,,0.04,WeatherDisplay:10.37,2013-01-16 04:21:00,
2013-01-15 22:26:00,32.7,27.2,30.20,NE,44,4.0,0.0,80,0.00,SCT,,0.04,WeatherDisplay:10.37,2013-01-16 04:26:00,
2013-01-15 22:31:00,32.5,27.1,30.20,NNE,21,2.3,0.0,80,0.00,CLR,,0.04,WeatherDisplay:10.37,2013-01-16 04:31:00,
2013-01-15 22:37:00,32.4,26.9,30.20,NE,39,0.0,0.0,80,0.00,CLR,,0.04,WeatherDisplay:10.37,2013-01-16 04:37:00,
2013-01-15 22:42:00,32.2,27.0,30.20,NE,34,2.3,0.0,81,0.00,CLR,,0.04,WeatherDisplay:10.37,2013-01-16 04:42:00,
2013-01-15 22:47:00,32.0,26.8,30.20,NNE,16,0.0,0.0,81,0.00,CLR,,0.04,WeatherDisplay:10.37,2013-01-16 04:47:00,
2013-01-15 22:52:00,32.0,26.8,30.20,NNE,24,2.3,0.0,81,0.00,CLR,,0.04,WeatherDisplay:10.37,2013-01-16 04:52:00,
2013-01-15 22:57:00,31.8,26.7,30.20,NNE,24,0.0,0.0,81,0.00,CLR,,0.04,WeatherDisplay:10.37,2013-01-16 04:57:00,
2013-01-15 23:02:00,31.8,26.7,30.20,North,10,0.0,0.0,81,0.00,CLR,,0.04,WeatherDisplay:10.37,2013-01-16 05:02:00,
2013-01-15 23:03:00,31.8,26.7,30.20,North,10,0.0,0.0,81,0.00,CLR,,0.04,WeatherDisplay:10.37,2013-01-16 05:03:00,
2013-01-15 23:08:00,31.5,26.3,30.20,NNE,20,2.3,0.0,81,0.00,CLR,,0.04,WeatherDisplay:10.37,2013-01-16 05:08:00,
2013-01-15 23:13:00,31.1,26.0,30.20,NNE,26,0.0,0.0,81,0.00,CLR,,0.04,WeatherDisplay:10.37,2013-01-16 05:13:00,
2013-01-15 23:18:00,31.1,26.0,30.20,NNE,31,0.0,0.0,81,0.00,CLR,,0.04,WeatherDisplay:10.37,2013-01-16 05:18:00,
2013-01-15 23:23:00,31.1,26.0,30.20,NNE,30,2.3,0.0,81,0.00,CLR,,0.04,WeatherDisplay:10.37,2013-01-16 05:23:00,
2013-01-15 23:28:00,30.9,25.8,30.20,NNE,18,2.3,0.0,81,0.00,CLR,,0.04,WeatherDisplay:10.37,2013-01-16 05:28:00,
2013-01-15 23:33:00,30.9,25.8,30.20,NNE,16,0.0,0.0,81,0.00,CLR,,0.04,WeatherDisplay:10.37,2013-01-16 05:33:00,
2013-01-15 23:38:00,30.7,25.6,30.20,NNE,23,0.0,0.0,81,0.00,CLR,,0.04,WeatherDisplay:10.37,2013-01-16 05:38:00,
2013-01-15 23:43:00,30.6,25.4,30.20,NNE,23,0.0,0.0,81,0.00,CLR,,0.04,WeatherDisplay:10.37,2013-01-16 05:43:00,
2013-01-15 23:48:00,30.6,25.4,30.20,NNE,24,0.0,0.0,81,0.00,SCT,,0.04,WeatherDisplay:10.37,2013-01-16 05:48:00,
2013-01-15 23:53:00,30.4,24.9,30.20,NE,48,2.3,0.0,80,0.00,SCT,,0.04,WeatherDisplay:10.37,2013-01-16 05:53:00,
2013-01-15 23:58:00,30.4,24.9,30.20,NE,36,0.0,0.0,80,0.00,SCT,,0.04,WeatherDisplay:10.37,2013-01-16 05:58:00,